This is the latest recevied weather packets stored in our database for station/object KG0HG. If no packets are shown the sender has not sent any weather packets the latest 10 day(s).
| Time | Temp. | Humidity | Pressure | Rain* | Wind** | Luminosity | Snow |
|---|---|---|---|---|---|---|---|
| 1777571138 | 17.22° C | 48% | 1017.7 hPa | 0 mm | - | 216 W/m² | - |
| 1777570834 | 17.22° C | 48% | 1017.8 hPa | 0 mm | - | 278 W/m² | - |
| 1777570530 | 17.22° C | 48% | 1017.9 hPa | 0 mm | - | 767 W/m² | - |
| 1777570227 | 17.22° C | 46% | 1018.1 hPa | 0 mm | - | 655 W/m² | - |
| 1777569922 | 17.22° C | 48% | 1018.1 hPa | 0 mm | - | 795 W/m² | - |
| 1777569618 | 17.22° C | 48% | 1018.2 hPa | 0 mm | - | 790 W/m² | - |
| 1777569315 | 16.67° C | 47% | 1018.2 hPa | 0 mm | - | 547 W/m² | - |
| 1777569011 | 16.67° C | 49% | 1018.4 hPa | 0 mm | - | 200 W/m² | - |
| 1777568708 | 16.11° C | 50% | 1018.2 hPa | 0 mm | - | 212 W/m² | - |
| 1777568405 | 16.11° C | 50% | 1018.6 hPa | 0 mm | - | 115 W/m² | - |
| 1777568102 | 16.67° C | 50% | 1018.7 hPa | 0 mm | - | 147 W/m² | - |
| 1777567799 | 16.67° C | 51% | 1018.6 hPa | 0 mm | - | 180 W/m² | - |
| 1777567495 | 16.67° C | 51% | 1018.6 hPa | 0 mm | - | 179 W/m² | - |
| 1777567193 | 16.67° C | 53% | 1018.7 hPa | 0 mm | - | 159 W/m² | - |
| 1777566891 | 16.11° C | 53% | 1018.9 hPa | 0 mm | - | 134 W/m² | - |
| 1777566588 | 16.11° C | 54% | 1018.9 hPa | 0 mm | - | 161 W/m² | - |
| 1777566285 | 16.11° C | 52% | 1019 hPa | 0 mm | - | 136 W/m² | - |
| 1777565983 | 15.56° C | 52% | 1018.9 hPa | 0 mm | - | 155 W/m² | - |
| 1777565677 | 15.56° C | 54% | 1019 hPa | 0 mm | - | 153 W/m² | - |
| 1777565375 | 15.56° C | 56% | 1019.2 hPa | 0 mm | - | 157 W/m² | - |
| 1777565070 | 15.56° C | 53% | 1019.3 hPa | 0 mm | - | 163 W/m² | - |
| 1777564766 | 15.56° C | 54% | 1019.2 hPa | 0 mm | - | 159 W/m² | - |
| 1777564462 | 15.56° C | 54% | 1019.3 hPa | 0 mm | - | 124 W/m² | - |
| 1777564157 | 15.56° C | 57% | 1019.2 hPa | 0 mm | - | 85 W/m² | - |
| 1777563853 | 15° C | 58% | 1019.2 hPa | 0 mm | - | 117 W/m² | - |
* Rain latest hour (hover to see other rain measurements)
** Current wind speed in m/s (hover to see current wind gust speed)